• In Uzbekistan
  • List of Countries
  • For 7 days
  • Water Temperature
  • Satellite Maps
  • Weather Map
  • Weather Widgets
  • user-avatar
    Login

    Hourly Weather Escaldes-Engordany

    Today, 22 August, Tuesday

    Time Temperature Precipitation Wind Pressure Humidity
    00:00 +15°C° 0 mm 1 mps 643 mmHg 69%
    01:00 +15°C° 0 mm 1 mps 643 mmHg 68%
    02:00 +15°C° 0 mm 1 mps 642 mmHg 68%
    03:00 +15°C° 0 mm 1 mps 642 mmHg 68%
    04:00 +15°C° 0 mm 1 mps 642 mmHg 67%
    05:00 +15°C° 0 mm 1 mps 642 mmHg 67%
    06:00 +15°C° 0 mm 1 mps 642 mmHg 66%
    07:00 +19°C° 0 mm 1 mps 643 mmHg 56%
    08:00 +21°C° 0 mm 2 mps 644 mmHg 46%
    09:00 +25°C° 0 mm 2 mps 646 mmHg 36%
    10:00 +27°C° 0 mm 2 mps 646 mmHg 33%
    11:00 +28°C° 0 mm 2 mps 646 mmHg 30%
    12:00 +29°C° 0 mm 2 mps 646 mmHg 26%
    13:00 +29°C° 0 mm 2 mps 646 mmHg 27%
    14:00 +29°C° 0 mm 2 mps 646 mmHg 27%
    15:00 +29°C° 0 mm 2 mps 645 mmHg 28%
    16:00 +27°C° 0 mm 2 mps 645 mmHg 36%
    17:00 +25°C° 0 mm 1 mps 644 mmHg 44%
    18:00 +23°C° 0 mm 1 mps 644 mmHg 52%
    19:00 +21°C° 0 mm 1 mps 643 mmHg 58%
    20:00 +19°C° 0 mm 1 mps 643 mmHg 64%
    21:00 +18°C° 0 mm 1 mps 643 mmHg 70%
    22:00 +16°C° 0 mm 1 mps 643 mmHg 70%
    23:00 +16°C° 0 mm 1 mps 643 mmHg 71%

    Tomorrow, 23 August, Wednesday

    Time Temperature Precipitation Wind Pressure Humidity
    00:00 +16°C° 0 mm 1 mps 643 mmHg 71%
    01:00 +15°C° 0 mm 1 mps 642 mmHg 71%
    02:00 +15°C° 0 mm 1 mps 642 mmHg 71%
    03:00 +15°C° 0 mm 1 mps 642 mmHg 71%
    04:00 +15°C° 0 mm 1 mps 642 mmHg 70%
    05:00 +14°C° 0 mm 0 mps 642 mmHg 69%
    06:00 +14°C° 0 mm 0 mps 643 mmHg 68%
    07:00 +19°C° 0.1 mm 1 mps 644 mmHg 61%
    08:00 +21°C° 0.1 mm 1 mps 645 mmHg 54%
    09:00 +23°C° 0.1 mm 2 mps 645 mmHg 46%
    10:00 +25°C° 0.1 mm 2 mps 646 mmHg 43%
    11:00 +26°C° 0.1 mm 2 mps 646 mmHg 41%
    12:00 +27°C° 0.1 mm 3 mps 646 mmHg 38%
    13:00 +27°C° 0.1 mm 2 mps 645 mmHg 38%
    14:00 +27°C° 0.1 mm 2 mps 645 mmHg 39%
    15:00 +27°C° 0.1 mm 2 mps 645 mmHg 39%
    16:00 +25°C° 0.2 mm 2 mps 644 mmHg 46%
    17:00 +24°C° 0.2 mm 2 mps 644 mmHg 52%
    18:00 +22°C° 0.2 mm 1 mps 643 mmHg 59%
    19:00 +21°C° 0.2 mm 1 mps 643 mmHg 63%
    20:00 +19°C° 0.2 mm 1 mps 643 mmHg 67%
    21:00 +18°C° 0.2 mm 1 mps 642 mmHg 71%
    22:00 +16°C° 0.3 mm 1 mps 642 mmHg 73%
    23:00 +16°C° 0.3 mm 1 mps 642 mmHg 75%

    Day after tomorrow, 24 August, Thursday

    Time Temperature Precipitation Wind Pressure Humidity
    00:00 +15°C° 0.3 mm 1 mps 642 mmHg 77%
    01:00 +15°C° 0.1 mm 1 mps 642 mmHg 75%
    02:00 +15°C° 0.1 mm 1 mps 642 mmHg 73%
    03:00 +15°C° 0.1 mm 1 mps 642 mmHg 71%
    04:00 +15°C° 0 mm 1 mps 642 mmHg 70%
    05:00 +15°C° 0 mm 1 mps 642 mmHg 68%
    06:00 +15°C° 0 mm 1 mps 642 mmHg 67%
    07:00 +19°C° 0 mm 1 mps 643 mmHg 58%
    08:00 +20°C° 0 mm 2 mps 644 mmHg 49%
    09:00 +24°C° 0 mm 2 mps 645 mmHg 40%
    10:00 +25°C° 0 mm 2 mps 645 mmHg 37%
    11:00 +26°C° 0 mm 3 mps 645 mmHg 35%
    12:00 +28°C° 0 mm 3 mps 645 mmHg 33%
    13:00 +28°C° 0 mm 3 mps 645 mmHg 33%
    14:00 +27°C° 0 mm 3 mps 645 mmHg 33%
    15:00 +27°C° 0 mm 3 mps 644 mmHg 32%
    16:00 +26°C° 0 mm 3 mps 644 mmHg 37%
    17:00 +24°C° 0 mm 3 mps 643 mmHg 43%
    18:00 +21°C° 0 mm 2 mps 643 mmHg 48%
    19:00 +20°C° 0 mm 2 mps 642 mmHg 50%
    20:00 +18°C° 0 mm 2 mps 642 mmHg 53%
    21:00 +16°C° 0 mm 2 mps 642 mmHg 56%
    22:00 +16°C° 0 mm 2 mps 641 mmHg 54%
    23:00 +15°C° 0 mm 2 mps 641 mmHg 53%

    25 August, Friday

    Time Temperature Precipitation Wind Pressure Humidity
    00:00 +15°C° 0 mm 2 mps 641 mmHg 52%
    01:00 +15°C° 0 mm 2 mps 641 mmHg 52%
    02:00 +15°C° 0 mm 2 mps 641 mmHg 52%
    03:00 +14°C° 0 mm 2 mps 640 mmHg 53%
    04:00 +15°C° 0 mm 2 mps 640 mmHg 52%
    05:00 +15°C° 0 mm 2 mps 640 mmHg 52%
    06:00 +15°C° 0 mm 2 mps 640 mmHg 52%
    07:00 +17°C° 0 mm 2 mps 641 mmHg 47%
    08:00 +20°C° 0 mm 2 mps 642 mmHg 42%
    09:00 +22°C° 0 mm 3 mps 643 mmHg 37%
    10:00 +25°C° 0 mm 3 mps 643 mmHg 34%
    11:00 +26°C° 0 mm 3 mps 643 mmHg 31%
    12:00 +27°C° 0 mm 4 mps 643 mmHg 28%
    13:00 +27°C° 0 mm 3 mps 643 mmHg 30%
    14:00 +27°C° 0 mm 3 mps 643 mmHg 31%
    15:00 +26°C° 0 mm 3 mps 642 mmHg 33%
    16:00 +25°C° 0 mm 3 mps 642 mmHg 38%
    17:00 +22°C° 0 mm 3 mps 641 mmHg 44%
    18:00 +21°C° 0 mm 3 mps 640 mmHg 49%
    19:00 +19°C° 0 mm 3 mps 640 mmHg 53%
    20:00 +18°C° 0 mm 2 mps 640 mmHg 57%
    21:00 +16°C° 0 mm 2 mps 639 mmHg 60%
    22:00 +16°C° 0 mm 2 mps 639 mmHg 55%
    23:00 +15°C° 0 mm 2 mps 639 mmHg 50%

    26 August, Saturday

    Time Temperature Precipitation Wind Pressure Humidity
    00:00 +15°C° 0 mm 2 mps 639 mmHg 45%
    01:00 +15°C° 0 mm 2 mps 639 mmHg 45%
    02:00 +15°C° 0 mm 2 mps 638 mmHg 46%
    03:00 +15°C° 0 mm 2 mps 638 mmHg 47%
    04:00 +14°C° 0.2 mm 2 mps 638 mmHg 52%
    05:00 +14°C° 0.2 mm 2 mps 638 mmHg 57%
    06:00 +14°C° 0.2 mm 2 mps 638 mmHg 63%
    07:00 +17°C° 0.1 mm 2 mps 639 mmHg 57%
    08:00 +20°C° 0.1 mm 3 mps 640 mmHg 51%
    09:00 +22°C° 0.1 mm 3 mps 641 mmHg 45%
    10:00 +25°C° 0 mm 4 mps 641 mmHg 41%
    11:00 +26°C° 0 mm 4 mps 641 mmHg 38%
    12:00 +27°C° 0 mm 5 mps 641 mmHg 34%
    13:00 +27°C° 0.2 mm 4 mps 641 mmHg 38%
    14:00 +26°C° 0.2 mm 4 mps 640 mmHg 41%
    15:00 +26°C° 0.2 mm 4 mps 640 mmHg 45%
    16:00 +25°C° 0.3 mm 4 mps 639 mmHg 51%
    17:00 +22°C° 0.3 mm 3 mps 639 mmHg 58%
    18:00 +20°C° 0.3 mm 3 mps 638 mmHg 65%
    19:00 +19°C° 0.2 mm 2 mps 638 mmHg 69%
    20:00 +17°C° 0.2 mm 2 mps 638 mmHg 73%
    21:00 +16°C° 0.2 mm 2 mps 638 mmHg 77%
    22:00 +15°C° 0 mm 2 mps 637 mmHg 76%
    23:00 +15°C° 0 mm 2 mps 637 mmHg 75%

    27 August, Sunday

    Time Temperature Precipitation Wind Pressure Humidity
    00:00 +14°C° 0 mm 2 mps 637 mmHg 74%
    01:00 +14°C° 0 mm 1 mps 637 mmHg 72%
    02:00 +14°C° 0 mm 1 mps 637 mmHg 70%
    03:00 +14°C° 0 mm 1 mps 637 mmHg 69%
    04:00 +14°C° 0.2 mm 1 mps 637 mmHg 68%
    05:00 +14°C° 0.2 mm 1 mps 637 mmHg 66%
    06:00 +14°C° 0.2 mm 1 mps 637 mmHg 65%
    07:00 +17°C° 0.4 mm 2 mps 638 mmHg 61%
    08:00 +19°C° 0.4 mm 2 mps 638 mmHg 57%
    09:00 +21°C° 0.4 mm 2 mps 639 mmHg 53%
    10:00 +22°C° 0.1 mm 3 mps 639 mmHg 50%
    11:00 +24°C° 0.1 mm 3 mps 639 mmHg 47%
    12:00 +25°C° 0.1 mm 4 mps 639 mmHg 44%
    13:00 +23°C° 0.3 mm 4 mps 639 mmHg 45%
    14:00 +23°C° 0.3 mm 4 mps 639 mmHg 46%
    15:00 +22°C° 0.3 mm 4 mps 639 mmHg 47%
    16:00 +21°C° 0.3 mm 3 mps 638 mmHg 52%
    17:00 +19°C° 0.3 mm 3 mps 638 mmHg 58%
    18:00 +18°C° 0.3 mm 2 mps 638 mmHg 63%
    19:00 +16°C° 0.1 mm 1 mps 638 mmHg 66%
    20:00 +15°C° 0.1 mm 1 mps 638 mmHg 70%
    21:00 +14°C° 0.1 mm 1 mps 638 mmHg 73%
    22:00 +14°C° 0 mm 1 mps 638 mmHg 74%
    23:00 +13°C° 0 mm 1 mps 638 mmHg 75%
    Show more